Theta_e
332 331 331 329 332 332 335 332 334 336 337 337 337 336 335 335 337 338 338 348 348 347 349 345 344 343 343 345 349 348 348 346 344 344 344 344 342 344 343 342 341 339 335
333 330 329 328 330 332 334 333 332 332 333 335 334 335 335 335 337 338 338 343 346 346 346 345 343 342 342 343 346 348 347 347 346 344 344 342 339 343 344 342 342 341 339
334 331 329 328 329 331 331 332 330 329 330 332 332 333 334 336 338 337 337 338 341 345 345 345 346 344 343 342 345 347 347 347 347 345 343 342 343 344 344 342 341 341 340
335 333 331 330 330 331 330 332 331 328 328 329 330 332 333 335 337 335 335 335 335 337 342 344 345 345 345 343 343 345 347 346 346 345 343 343 343 342 344 343 343 341 339
337 336 334 333 330 331 331 331 331 330 327 327 331 332 332 337 334 334 332 333 332 335 333 341 343 343 345 344 343 345 346 346 344 345 343 344 343 342 342 343 341 341 339
340 337 337 334 334 329 331 330 328 329 328 330 330 330 331 333 331 330 331 335 332 334 334 333 334 337 343 343 343 345 344 345 344 345 344 343 343 343 341 341 340 339 339
342 337 337 337 336 333 331 332 329 327 326 326 325 324 325 328 328 329 330 329 330 332 333 333 332 332 335 340 341 344 343 344 344 344 344 342 343 343 342 341 339 338 340
343 341 338 338 337 336 333 331 331 327 325 326 322 319 316 319 322 326 327 328 325 329 330 331 331 331 331 331 332 341 342 343 343 344 344 342 343 343 342 342 341 340 340
345 343 342 340 338 336 334 332 331 327 325 326 326 322 317 313 315 320 323 325 325 325 326 328 329 331 331 332 333 335 341 342 342 343 344 343 343 344 343 341 341 341 342
345 344 341 340 338 337 334 333 333 327 326 325 325 327 323 319 314 312 318 321 323 324 324 325 327 330 331 330 333 334 335 340 342 343 345 344 344 344 343 342 342 341 341
343 344 341 339 338 336 335 336 331 329 327 325 322 322 321 321 319 315 312 315 320 323 323 324 326 328 329 330 328 331 334 337 338 337 341 344 345 345 342 342 341 341 341
339 341 341 339 339 337 336 335 333 334 330 326 325 323 320 318 316 316 314 314 314 318 322 323 325 327 328 330 332 333 332 331 330 332 333 336 341 342 342 341 341 341 340
335 337 338 338 337 338 338 335 336 333 328 326 326 324 322 321 320 318 316 313 313 316 318 321 323 327 327 329 327 331 333 329 327 327 328 332 335 337 339 339 340 339 338
339 339 338 338 339 340 336 335 334 332 328 326 325 324 322 322 322 320 317 314 311 312 315 316 321 324 325 327 329 333 330 327 326 324 324 327 329 331 334 335 336 335 335
339 339 338 337 339 337 336 332 330 329 328 326 325 324 322 322 322 322 319 318 314 309 310 315 317 323 327 330 330 331 329 327 326 322 322 324 325 328 328 329 329 329 328
340 338 337 338 336 337 334 330 327 327 326 325 325 323 322 322 322 322 321 320 318 314 310 315 317 322 327 330 333 330 328 326 323 321 323 324 322 324 324 324 324 324 325
338 338 339 336 334 333 330 327 326 327 327 324 324 324 323 323 323 323 321 320 318 317 314 318 320 322 325 327 329 326 325 325 323 321 322 322 320 321 321 320 321 322 323
339 340 338 334 333 333 329 326 326 327 326 324 324 324 323 326 322 322 320 320 319 318 317 316 315 322 325 327 328 325 325 327 325 322 319 319 318 317 318 318 317 318 316
337 337 334 331 330 330 329 328 328 326 325 324 323 322 322 323 320 321 321 320 320 322 317 319 315 319 324 325 323 323 322 322 324 321 318 318 318 317 317 316 315 314 312
334 332 330 329 330 329 329 327 326 325 324 323 323 322 321 321 320 319 321 323 322 319 318 316 315 318 320 321 322 319 318 320 320 323 321 319 318 317 316 315 315 315 311
331 329 327 328 329 328 326 325 326 326 323 321 320 319 319 320 320 319 323 322 322 318 316 313 313 317 317 318 318 318 316 316 317 318 318 319 320 319 316 315 318 316 310
326 325 325 325 325 325 313 314 325 325 323 320 317 317 319 320 317 314 314 316 321 319 316 313 312 317 317 316 318 317 316 315 312 319 317 315 320 317 317 319 314 310 308
322 322 322 324 323 319 305 308 314 324 321 319 317 317 321 322 320 321 311 313 314 313 315 316 315 318 317 318 318 317 318 310 313 316 317 312 316 314 315 313 309 307 307
322 323 322 320 319 311 301 306 309 322 320 319 321 320 318 321 320 320 319 321 321 319 318 318 317 317 319 320 320 320 315 315 316 316 317 310 314 312 315 314 307 307 305
327 325 323 318 315 310 301 303 315 321 323 322 320 322 322 320 306 305 319 318 315 313 304 305 306 305 304 305 313 318 315 314 311 311 314 313 313 313 313 314 313 305 304
323 324 320 317 311 312 301 304 315 323 322 319 317 316 304 314 301 302 315 316 315 312 312 312 311 306 309 308 307 319 318 314 311 310 314 312 312 313 310 314 315 310 306
Wind_Speed
7 5 6 5 6 4 6 5 5 6 7 8 8 7 7 7 6 5 4 15 21 19 19 18 16 15 14 11 10 13 14 15 15 15 17 14 11 15 16 16 17 17 17
7 7 6 7 6 7 7 7 7 7 8 6 8 9 9 7 7 6 5 6 15 17 16 16 15 15 14 13 11 13 14 14 16 17 18 14 13 13 17 17 17 18 18
10 9 7 7 7 8 8 6 5 4 4 4 7 7 7 9 7 5 5 4 7 17 16 16 14 14 14 14 13 13 14 13 16 18 18 15 16 15 16 18 17 15 16
10 10 8 8 7 7 7 7 6 5 5 5 6 7 6 5 6 7 4 5 5 6 12 16 15 15 15 15 15 15 14 13 15 16 17 16 16 17 17 18 16 16 15
12 11 9 8 7 6 6 7 6 6 4 4 7 6 6 5 5 4 6 7 7 6 3 9 13 12 13 14 15 16 15 14 13 14 15 16 16 17 15 14 14 13 10
13 12 8 7 8 5 5 5 4 5 4 7 6 5 4 4 4 4 4 3 5 6 5 6 5 6 12 11 14 15 17 16 14 14 14 14 16 18 17 12 13 11 13
11 11 7 8 7 8 9 9 5 6 4 4 3 2 2 4 5 5 4 3 4 5 6 8 5 4 4 9 9 12 16 18 18 15 13 15 16 17 16 15 12 16 18
9 10 10 9 9 5 6 6 5 3 2 4 4 2 2 4 3 3 2 2 3 4 4 5 7 8 7 5 7 12 15 17 18 16 13 14 15 15 18 17 17 17 15
10 12 11 9 8 6 6 5 6 7 4 2 3 5 2 4 2 3 3 2 4 4 3 5 6 7 7 5 6 7 12 14 17 18 15 14 15 16 14 13 14 13 13
9 10 10 8 7 5 6 5 5 4 5 4 1 1 3 4 3 3 3 3 2 4 4 4 4 4 5 3 5 8 8 11 14 15 15 17 17 17 16 13 14 13 12
7 9 8 7 6 4 5 7 6 6 3 4 3 3 1 1 1 3 3 4 3 3 2 3 4 3 5 4 3 4 10 11 11 14 14 16 16 16 14 16 16 15 16
4 6 8 7 6 6 6 5 6 7 5 4 3 3 4 4 3 3 3 3 3 3 1 3 4 4 3 3 4 6 7 9 10 11 11 14 15 16 17 17 18 20 21
3 6 7 6 5 5 6 6 6 6 5 4 5 4 3 3 3 3 3 2 2 2 1 2 3 3 3 4 4 6 7 9 10 9 11 12 14 16 19 19 20 22 22
7 8 7 6 6 7 6 6 4 4 6 5 6 4 3 3 4 3 4 4 1 2 1 2 1 4 4 3 5 6 4 9 9 9 10 13 15 16 17 18 18 19 19
7 9 8 7 6 7 7 7 5 5 5 5 5 5 3 3 3 3 3 3 5 3 2 1 0 1 1 3 5 4 3 8 10 9 12 14 11 17 14 14 14 15 17
10 10 8 7 7 8 8 7 5 4 6 4 4 5 4 2 4 3 3 3 3 4 2 1 1 1 2 3 4 3 3 6 7 12 15 19 13 16 16 18 16 15 15
10 10 10 8 8 8 7 6 6 6 6 6 4 5 6 4 3 3 3 2 3 3 3 1 2 3 2 3 4 4 4 4 3 12 12 15 14 15 15 16 17 16 14
10 11 10 10 10 9 8 8 7 6 7 6 6 5 6 3 4 3 3 4 3 3 4 5 2 2 3 2 4 6 4 4 3 7 11 13 16 15 14 15 12 13 12
11 11 11 10 9 8 8 7 6 7 6 6 6 6 5 4 3 2 3 4 3 2 3 4 3 1 3 3 6 5 4 5 4 11 12 12 16 16 16 15 14 12 12
12 11 9 9 8 7 7 7 6 6 6 5 5 5 5 5 5 4 2 4 4 4 4 5 4 3 3 3 3 5 4 3 4 4 6 7 11 12 13 13 13 13 12
10 10 8 7 7 8 6 7 7 7 7 6 5 5 5 5 6 4 3 4 5 4 4 4 4 2 2 3 6 2 4 4 5 3 4 3 6 5 4 8 10 12 10
7 7 7 8 7 4 11 11 9 8 7 7 6 5 4 5 3 2 2 4 8 9 6 4 3 6 4 3 4 6 6 4 3 2 4 3 4 4 4 5 9 10 11
8 7 7 7 6 5 6 11 11 7 7 6 6 5 4 3 4 3 2 4 9 7 6 6 9 8 6 5 7 8 5 3 3 3 6 3 2 4 2 4 10 10 10
9 8 7 7 8 5 7 9 10 6 5 5 5 5 4 4 4 4 4 5 7 4 4 4 6 7 5 8 9 7 6 7 6 4 2 3 2 2 3 2 8 6 8
8 8 8 8 8 5 6 7 8 6 6 6 5 3 3 4 4 6 6 9 7 3 7 9 11 13 12 11 11 9 7 9 3 1 1 4 2 3 2 3 4 10 9
7 7 6 6 8 7 6 6 8 6 6 4 3 3 3 6 8 10 7 7 8 3 7 7 6 7 9 11 9 8 10 9 5 2 3 4 3 4 2 3 4 4 4
Wind_Direction
195 183 199 190 201 194 191 199 202 205 213 217 229 233 239 240 231 236 238 227 198 208 205 208 205 211 209 203 203 199 203 204 202 203 203 187 187 191 187 180 175 177 174
192 185 196 203 196 196 198 199 204 207 218 214 226 239 238 239 239 229 220 224 203 205 208 204 204 210 213 210 205 200 205 198 199 209 212 189 196 194 190 188 191 185 180
190 183 194 204 199 198 191 195 205 195 204 207 227 232 238 240 239 199 192 193 208 209 208 205 204 207 217 215 211 207 201 201 195 205 215 193 193 195 191 195 195 192 186
187 189 192 206 197 189 187 189 195 200 208 197 225 238 242 234 204 188 192 215 215 209 220 209 206 209 210 215 214 211 202 201 199 203 206 199 195 196 198 194 194 190 193
190 195 198 200 188 179 190 186 195 188 200 205 220 233 242 234 217 197 185 208 212 224 200 220 212 213 216 214 217 215 205 201 206 204 207 199 200 203 205 201 204 188 190
195 196 197 185 191 177 180 182 174 190 191 217 220 218 220 229 226 230 216 230 208 212 173 193 249 214 215 217 218 226 214 205 207 206 207 194 192 201 213 206 205 175 205
199 191 191 188 193 188 196 192 173 175 211 171 111 356 265 237 243 241 217 212 213 222 201 189 210 206 210 210 231 225 225 213 209 208 201 198 200 201 206 208 186 216 214
184 182 186 192 188 165 180 186 163 136 168 171 142 115 312 322 319 278 252 205 218 216 200 196 202 206 203 204 206 221 219 218 212 210 198 203 203 206 208 206 187 203 200
180 184 185 183 174 164 177 180 173 163 157 189 195 146 100 237 331 333 344 285 204 211 190 211 210 200 197 189 188 227 213 210 219 215 201 206 200 215 203 201 200 184 187
181 177 180 174 159 165 170 174 175 157 135 166 146 198 105 143 171 326 331 321 256 212 193 215 215 195 184 139 192 220 217 206 212 218 204 204 209 211 203 191 170 169 176
165 162 162 160 159 169 175 170 155 152 153 146 151 142 103 127 124 136 263 309 309 261 211 199 204 194 175 179 196 233 215 199 197 212 206 200 205 206 196 173 158 160 156
151 158 153 163 172 166 168 174 169 158 164 148 152 137 156 171 192 159 209 253 248 300 264 207 200 225 205 175 213 222 202 187 184 203 209 195 196 189 167 162 162 157 153
152 176 154 164 181 173 174 161 158 153 161 160 165 179 185 192 158 162 147 211 215 298 331 243 219 227 219 220 186 221 200 180 186 189 199 177 173 169 161 164 165 159 161
175 165 161 163 171 160 155 151 137 132 145 163 174 176 189 199 174 167 171 150 79 310 334 261 307 213 212 209 172 162 164 175 184 191 188 170 165 160 154 157 161 161 155
162 162 153 162 145 142 143 134 134 145 156 160 186 186 172 198 188 183 179 157 153 182 256 252 153 303 187 132 144 117 135 170 174 165 155 150 172 146 150 142 143 144 142
155 156 149 153 136 149 140 133 145 157 153 176 171 175 190 186 204 190 185 188 172 151 168 216 303 174 95 105 117 92 91 111 143 155 157 148 177 148 139 138 136 141 145
155 155 156 141 147 151 147 143 165 164 171 173 172 180 203 194 190 196 182 159 181 148 133 54 65 33 71 135 67 77 91 97 126 168 150 146 148 140 141 137 143 143 145
161 156 146 145 153 161 158 159 163 160 167 174 187 185 208 194 203 211 201 193 174 182 137 139 98 69 86 83 118 104 93 76 92 119 122 134 133 132 133 132 130 142 147
152 144 140 151 154 165 158 151 158 157 167 176 186 186 199 180 201 203 206 174 169 172 126 135 120 119 84 83 95 75 77 67 69 109 105 121 127 128 135 141 144 148 155
144 136 151 154 159 147 152 154 156 158 138 160 169 165 169 182 188 191 184 156 166 134 121 115 95 83 83 74 93 124 97 62 86 76 95 127 135 133 140 147 153 158 158
138 149 144 141 148 159 168 159 154 142 144 142 145 148 158 149 139 170 172 169 132 138 127 122 110 109 129 142 147 121 108 97 57 78 90 108 126 122 120 136 151 152 152
137 134 135 144 154 152 163 156 142 150 153 153 159 163 160 157 164 165 123 135 154 149 151 131 154 161 144 114 130 137 134 131 115 76 98 68 135 126 134 151 144 146 149
125 126 128 136 136 126 156 143 136 152 155 162 157 162 166 196 188 186 117 155 142 186 184 158 160 167 152 149 140 138 147 102 113 118 112 84 61 106 103 119 140 148 159
132 133 130 127 124 100 97 126 141 140 134 133 145 165 189 201 192 171 150 148 151 148 169 146 163 153 130 152 152 141 120 99 84 66 69 101 95 89 117 124 145 169 180
131 134 140 136 122 117 110 119 132 118 122 139 160 178 197 184 175 162 123 123 112 93 55 98 121 123 130 132 135 127 137 135 112 100 46 105 136 107 141 164 183 212 206
134 131 121 120 121 128 133 139 123 131 134 147 143 158 41 138 175 155 128 133 118 115 115 98 89 93 128 141 149 158 156 148 125 101 195 102 132 131 168 199 204 199 220